User: anonymous   Login
Location: Unspecified
(0.0000°N, 0.0000°E)
Time: 05:07:55
(UTC+01:00)
Language:

Iridium 75 - Orbit

View from above orbital plane
View from above orbital plane
View from above satellite
View from above satellite

Ground track
Ground track

The orbit data is extracted from the following two-line orbital elements,

1 25346U 98032E   15031.57115255  .00000149  00000-0  46151-4 0  1642
2 25346 086.3940 226.7222 0001977 107.2209 311.8077 14.34217529875319
Epoch (UTC): 31 January 2015 13:42:27
Eccentricity: 0.0001977
inclination: 86.3940°
perigee height: 776 km
apogee height: 779 km
right ascension of ascending node: 226.7222°
argument of perigee: 107.2209°
revolutions per day: 14.34217529
mean anomaly at epoch: 311.8077°
orbit number at epoch: 87531

The dashed part of the orbit path shows where the satellite is in the earth's shadow,  

DLR